Regional Weather Roundup
Issued by NWS

Home | Current Version | Previous Version | Graphics & Text | Print | Product List | Glossary Off
Versions: 1 2 3 4 5 6 7 8 9 10 11 12 13 14 15 16 17 18 19 20 21 22 23 24 25 26 27 28 29 30 31 32 33 34 35 36 37 38 39 40 41 42 43 44 45 46 47 48 49 50

000
ASUS43 KDMX 281808
RWRIA

WEATHER ROUNDUP FOR IOWA
NATIONAL WEATHER SERVICE DES MOINES IA
100 PM CDT SAT MAY 28 2016

NOTE: "FAIR" INDICATES FEW OR NO CLOUDS BELOW 12,000 FEET WITH NO
SIGNIFICANT WEATHER AND/OR OBSTRUCTIONS TO VISIBILITY.

* - THESE STATIONS ARE NOT NWS STATIONS...THUS NOT UNDER NWS
QUALITY CONTROL.  THEY ALSO DO NOT REPORT WEATHER SUCH
AS PRECIPITATION OR FOG.

IAZ001>003-012>014-020>022-031>034-043>046-281900-
   NORTHWEST IOWA

CITY           SKY/WX    TMP DP  RH WIND       PRES   REMARKS
CARROLL *      PTSUNNY   70  61  73 SW17      29.77S
CHEROKEE *     SUNNY     71  61  70 S13       29.75S
DENISON *      PTSUNNY   70  57  64 SW8G18    29.75F
LE MARS *      CLOUDY    68  61  77 SW9       29.75F
ORANGE CITY *  PTSUNNY   66  59  77 SW3       29.76S
SHELDON *      PTSUNNY   68  59  73 W7G13     29.75S
SIOUX CITY     MOSUNNY   71  60  68 S12       29.73F
6HR MIN TEMP:  62; 6HR MAX TEMP:  72;

SPENCER        PTSUNNY   71  58  63 SW8       29.76S
6HR MIN TEMP:  62; 6HR MAX TEMP:  72; 6HR PCP:  0.63;

STORM LAKE *   MOSUNNY   70  59  68 SW14      29.77S
$$

IAZ055>058-069>071-079>083-090>094-281900-
   SOUTHWEST IOWA

CITY           SKY/WX    TMP DP  RH WIND       PRES   REMARKS
ATLANTIC *     MOSUNNY   70  59  68 SW16      29.79S
AUDUBON *      MOSUNNY   70  61  73 SW13G22   29.79F
CLARINDA *       N/A     70  63  78 MISG      29.83R
COUNCIL BLFS *   N/A     70  59  68 SW15G22   29.80R
CRESTON *      CLOUDY    66  63  88 SW14      29.82F
HARLAN  *      MOSUNNY   70  59  68 SW12      29.81S
LAMONI         LGT RAIN  63  62  97 SW13      29.83R
6HR MIN TEMP:  62; 6HR MAX TEMP:  69; 6HR PCP:  0.06;

RED OAK *      MOSUNNY   70  61  73 SW10G18   29.81R
SHENANDOAH *   PTSUNNY   70  61  73 W15       29.82S
$$

IAZ047>049-059>061-072>074-084-281900-
   CENTRAL IOWA

CITY           SKY/WX    TMP DP  RH WIND       PRES   REMARKS
AMES           CLOUDY    71  64  78 S7        29.78S
6HR MIN TEMP:  61; 6HR MAX TEMP:  72;

ANKENY *       PTSUNNY   70  61  73 SW7G14    29.78F
BOONE *        PTSUNNY   70  64  83 SW7       29.77F
CHARITON *     PTSUNNY   70  63  78 S17G23    29.81R
DES MOINES     HVY RAIN  66  61  84 SW12      29.79S
6HR MIN TEMP:  62; 6HR MAX TEMP:  73; 6HR PCP:  0.13;

GRINNELL*      CLOUDY    73  63  68 S10       29.80F
KNOXVILLE *    CLOUDY    70  64  83 S12G20    29.78S
MARSHALLTOWN   CLOUDY    71  63  75 S8        29.78S
6HR MIN TEMP:  62; 6HR MAX TEMP:  72;

NEWTON *       CLOUDY    72  63  73 S9        29.78F
PERRY *        CLOUDY    70  64  83 W12       29.79S
$$

IAZ004>006-015-016-023>025-035-036-281900-
   NORTH CENTRAL IOWA

CITY           SKY/WX    TMP DP  RH WIND       PRES   REMARKS
ALGONA *       DRIZZLE   68  63  83 S13       29.78R
CLARION *      MOSUNNY   73  64  73 S10G18    29.77S
ESTHERVILLE    PTSUNNY   68  59  73 S5        29.76F
6HR MIN TEMP:  63; 6HR MAX TEMP:  70; 6HR PCP: TRACE;

FORT DODGE *   CLOUDY    72  61  68 SW10      29.77S
MASON CITY     PTSUNNY   71  65  81 S14       29.79S
6HR MIN TEMP:  62; 6HR MAX TEMP:  71; 6HR PCP:  0.37;

FOREST CITY *  CLOUDY    70  61  73 S8        29.78R
WEBSTER CITY * PTSUNNY   72  64  78 S14       29.75S
IOWA FALLS *   CLOUDY    70  63  78 S12       29.80S
$$

IAZ007>011-017>019-026>030-037>042-050>054-066-281900-
   NORTHEAST IOWA

CITY           SKY/WX    TMP DP  RH WIND       PRES   REMARKS
CEDAR RAPIDS   MOSUNNY   77  66  68 S13G23    29.80F
6HR MIN TEMP:  62; 6HR MAX TEMP:  78;

CHARLES CITY * CLOUDY    70  66  88 SW9G15    29.79S
CLINTON *      PTSUNNY   79  67  66 S18       29.85F HX  81
DECORAH *      MOSUNNY   73  64  73 SW8G16    29.79F
DUBUQUE        MOSUNNY   76  64  66 S15       29.83F
6HR MIN TEMP:  62; 6HR MAX TEMP:  77;

MONTICELLO *   PTSUNNY   77  64  65 S12G21    29.82S
OELWEIN *      MOSUNNY   73  64  73 S15       29.81F
WATERLOO       PTSUNNY   75  61  61 S10       29.78F
6HR MIN TEMP:  63; 6HR MAX TEMP:  76;

$$

IAZ064-065-067-068-078-281900-
   EAST CENTRAL IOWA

CITY           SKY/WX    TMP DP  RH WIND       PRES   REMARKS
DAVENPORT      SUNNY     79  66  64 S17       29.85S HX  81
6HR MIN TEMP:  67; 6HR MAX TEMP:  79;

IOWA CITY      MOSUNNY   79  65  62 S17G23    29.82F HX  81
6HR MIN TEMP:  63; 6HR MAX TEMP:  80;

MT. PLEASANT * MOSUNNY   80  68  67 S17G24    29.83F HX  83
MUSCATINE *    PTSUNNY   79  66  65 S15G25    29.83F HX  81
QUAD CITIES    MOSUNNY   81  65  58 S14       29.84S HX  83
6HR MIN TEMP:  72; 6HR MAX TEMP:  81;

$$

IAZ062-063-075>077-085>089-095>099-281900-
   SOUTHEAST IOWA

CITY           SKY/WX    TMP DP  RH WIND       PRES   REMARKS
BURLINGTON     MOSUNNY   78  67  68 S14G23    29.84F HX  80
6HR MIN TEMP:  68; 6HR MAX TEMP:  78;

FAIRFIELD *      N/A    N/A N/A N/A MISG        N/A
FORT MADISON * MOSUNNY   79  68  69 SE10G18   29.85F HX  81
KEOKUK *       SUNNY     79  66  65 S15       29.84S HX  81
OSKALOOSA *      N/A     75  66  74 S16       29.81S
OTTUMWA        CLOUDY    76  65  68 S22G29    29.80F
6HR MIN TEMP:  64; 6HR MAX TEMP:  77; 6HR PCP: TRACE;

WASHINGTON *   PTSUNNY   79 -33   1 S18       29.81F
$$

ABBREVIATIONS USED IN REMARKS
   TC - TEMPERATURES IN CELSIUS
  WCI - WIND CHILL INDEX
   HX - HEAT INDEX
  VSB - VISIBILITY
$$





USA.gov is the U.S. government's official web portal to all federal, state and local government web resources and services.